www.pogodaiklimat.ru
ПОГОДА в Тамды

Архив погоды в Тамды (Навоийская область, Узбекистан)

Время
и дата
00:00 28.05
00:10 28.05
00:20 28.05
00:40 28.05
00:50 28.05
01:00 28.05
01:10 28.05
01:50 28.05
02:10 28.05
02:20 28.05
02:30 28.05
02:40 28.05
02:50 28.05
03:10 28.05
03:20 28.05
03:30 28.05
03:40 28.05
04:00 28.05
04:20 28.05
04:40 28.05
04:50 28.05
05:10 28.05
05:20 28.05
05:40 28.05
05:50 28.05
06:10 28.05
06:30 28.05
06:40 28.05
06:50 28.05
07:10 28.05
07:30 28.05
07:50 28.05
08:00 28.05
08:10 28.05
08:20 28.05
08:30 28.05
08:40 28.05
08:50 28.05
09:00 28.05
09:20 28.05
09:40 28.05
09:50 28.05
10:00 28.05
10:10 28.05
10:30 28.05
10:40 28.05
10:50 28.05
11:00 28.05
11:20 28.05
11:30 28.05
11:40 28.05
12:00 28.05
12:20 28.05
12:30 28.05
12:40 28.05
13:00 28.05
13:10 28.05
13:20 28.05
13:40 28.05
13:50 28.05
14:00 28.05
14:10 28.05
14:20 28.05
14:30 28.05
14:50 28.05
15:00 28.05
15:10 28.05
15:30 28.05
15:40 28.05
16:00 28.05
16:10 28.05
16:30 28.05
16:50 28.05
17:00 28.05
17:10 28.05
17:30 28.05
17:50 28.05
18:00 28.05
18:20 28.05
18:30 28.05
18:50 28.05
19:10 28.05
19:30 28.05
19:40 28.05
20:00 28.05
20:10 28.05
20:30 28.05
20:40 28.05
20:50 28.05
21:00 28.05
21:20 28.05
21:30 28.05
21:40 28.05
21:50 28.05
22:20 28.05
22:30 28.05
22:40 28.05
23:00 28.05
23:10 28.05
23:20 28.05
23:30 28.05
23:40 28.05
23:50 28.05
00:10 29.05
00:20 29.05
00:30 29.05
00:40 29.05
00:50 29.05
01:10 29.05
01:30 29.05
01:40 29.05
01:50 29.05
02:00 29.05
02:10 29.05
02:30 29.05
02:40 29.05
02:50 29.05
03:00 29.05
03:10 29.05
03:20 29.05
03:30 29.05
03:40 29.05
03:50 29.05
04:10 29.05
04:20 29.05
04:40 29.05
04:50 29.05
05:10 29.05
05:20 29.05
05:30 29.05
05:40 29.05
05:50 29.05
06:00 29.05
06:10 29.05
06:20 29.05
06:30 29.05
06:50 29.05
07:10 29.05
07:20 29.05
07:30 29.05
07:40 29.05
08:00 29.05
08:10 29.05
08:30 29.05
Ветер
(напр.,м/с)
Видимость Явления Солнечная радиация
(Вт/м2)
Т
(С)
Тd
(С)
f
(%)
Тe
(С)
Тes
(С)
Комфортность P
(гПа)
Po
(гПа)
Тmin
(С)
Tmax
(С)
R
(мм)
В 1.0
{2.2}
+21.1 -5.3 16 +20 +20 1014.3 986.2 +21.7 +21.0
В 1.4
{3.2}
+21.6 -5.2 16 +20 +20 1014.3 986.2 +21.7 +21.1
В 1.6
{3.0}
+21.9 -5.4 16 +21 +21 комфорт 1014.2 986.1 +21.9 +21.5
В 2.5
{3.4}
+22.1 -5.1 16 +21 +21 комфорт 1014.2 986.1 +22.2 +21.4
В 1.9
{3.0}
+21.7 -4.8 17 +21 +21 комфорт 1014.2 986.1 +22.1 +21.7
В 2.4
{3.7}
+21.8 -5.0 16 +21 +21 комфорт 1014.3 986.2 +21.8 +21.6
В 2.2
{3.5}
+21.6 -4.8 17 +21 +21 комфорт 1014.3 986.2 +21.8 +21.6
ЮВ 2.0
{2.4}
+20.3 -4.4 18 +21 +21 комфорт 1014.3 986.2 +20.6 +20.2
В 2.0
{2.3}
+20.3 -4.1 19 +21 +21 комфорт 1014.4 986.3 +20.5 +20.3
В 1.9
{2.3}
+20.0 -3.9 20 +20 +20 1014.6 986.4 +20.3 +20.0
В 1.2
{2.1}
+19.0 -3.4 22 +20 +20 1014.7 986.5 +20.0 +19.0
СЗ 2.1
{3.2}
+17.3 -2.5 26 +18 +18 1014.9 986.7 +19.0 +17.3
З 1.4
{2.0}
+17.0 -3.3 25 +18 +18 1014.9 986.7 +17.3 +16.6
Ю 3.1
{3.8}
+17.6 -3.2 24 +18 +18 1014.9 986.7 +17.6 +17.1
ЮВ 3.4
{4.0}
+18.0 -3.3 23 +18 +18 1014.9 986.7 +18.0 +17.6
ЮВ 3.7
{4.2}
+18.5 -3.4 22 +18 +18 1014.8 986.6 +18.5 +18.0
ЮВ 3.5
{4.2}
+18.8 -3.4 22 +19 +19 1014.9 986.7 +18.8 +18.5
ЮВ 2.5
{3.3}
+19.2 -3.3 22 +20 +20 1015.0 986.8 +19.2 +19.0
В 1.8
{2.3}
+18.0 -2.8 24 +19 +19 1015.0 986.8 +18.7 +18.0
В 1.2
{2.0}
+18.0 -2.8 24 +19 +19 1015.1 986.9 +18.0 +18.0
Ю 1.1
{1.8}
+18.8 -3.0 23 +20 +20 1015.2 987.0 +18.8 +18.0
СЗ 1.5
{2.8}
+17.5 -1.7 27 +18 +18 1015.8 987.6 +19.1 +17.5
ЮВ 0.9
{1.7}
1.0 +17.0 -1.6 28 +18 +18 1015.8 987.6 +17.5 +17.0
Ю 1.5
{2.3}
11.1 +18.1 -2.1 25 +19 +19 1015.9 987.7 +18.1 +17.7
ЮВ 1.6
{2.2}
16.5 +17.9 -2.0 26 +19 +19 1015.9 987.7 +18.1 +17.9
Ю 2.5
{2.8}
66.8 +18.3 -2.3 25 +19 +20 1016.1 987.9 +18.2 +17.7
ЮВ 2.0
{2.7}
146.8 +19.9 -1.6 24 +20 +23 1016.2 988.0 +19.9 +19.0
ЮВ 1.7
{2.2}
191.6 +20.8 -1.4 22 +21 +25 комфорт 1016.3 988.1 +20.8 +19.9
ЮВ 1.6
{2.1}
208.8 +21.7 -0.4 23 +21 +26 комфорт 1016.3 988.1 +21.7 +20.8
В 1.4
{2.4}
250.1 +22.9 -1.4 20 +22 +28 комфорт 1016.4 988.2 +22.9 +22.4
СВ 1.6
{2.7}
273.4 +22.8 -1.4 20 +22 +28 комфорт 1016.5 988.3 +22.9 +22.7
СВ 1.6
{2.6}
363.5 +23.3 -1.6 19 +22 +30 комфорт 1016.6 988.4 +23.3 +23.1
СВ 2.1
{3.5}
397.7 +23.8 -1.8 18 +22 +30 комфорт 1016.6 988.4 +23.7 +23.3
СВ 2.0
{3.1}
427.3 +24.3 -1.0 19 +23 +32 комфорт 1016.6 988.4 +24.3 +23.8
СВ 2.4
{4.3}
249.6 +24.8 -1.6 17 +23 +28 комфорт 1016.7 988.5 +24.7 +24.2
СВ 2.4
{3.9}
363.7 +25.2 -0.9 18 +23 +30 комфорт 1016.8 988.6 +25.2 +24.8
СВ 3.4
{6.3}
514.8 +25.5 -1.8 16 +23 +32 комфорт 1016.8 988.6 +25.5 +25.2
СВ 3.8
{6.5}
543.6 +26.0 -1.9 16 +24 +33 комфорт 1016.8 988.6 +26.0 +25.4
СВ 4.5
{8.0}
570.6 +26.2 -2.0 16 +24 +33 комфорт 1016.8 988.6 +26.3 +25.9
СВ 6.6
{9.3}
623.4 +26.5 -2.2 15 +24 +31 комфорт 1016.7 988.5 +26.7 +26.2
СВ 6.2
{9.4}
672.4 +27.2 -2.1 15 +25 +33 комфорт 1016.8 988.6 +27.1 +26.7
СВ 5.9
{9.7}
694.8 +27.3 -2.0 15 +25 +34 комфорт 1016.8 988.6 +27.4 +27.1
СВ 6.2
{9.4}
715.6 +27.5 -2.3 14 +25 +34 комфорт 1016.9 988.7 +27.6 +27.3
СВ 5.4
{9.3}
734.3 +27.9 -2.1 14 +25 +35 комфорт 1016.9 988.7 +28.1 +27.4
СВ 5.6
{8.7}
771.1 +28.6 -1.9 14 +26 +36 жарко 1016.9 988.7 +28.6 +27.9
СВ 5.7
{8.3}
787.9 +29.0 -1.6 14 +26 +36 жарко 1016.9 988.7 +29.1 +28.1
СВ 4.4
{8.0}
802.3 +29.1 -1.9 13 +26 +39 жарко 1017.0 988.8 +29.2 +28.5
СВ 5.0
{8.0}
817.7 +29.0 -1.0 14 +26 +38 жарко 1017.0 988.8 +29.1 +28.6
СВ 4.8
{9.2}
842.6 +29.3 -0.5 14 +26 +39 жарко 1017.1 988.9 +29.2 +28.9
СВ 5.2
{9.9}
855.3 +29.2 -0.8 14 +26 +38 жарко 1017.1 988.9 +29.4 +28.8
СВ 5.1
{8.7}
863.9 +29.1 -1.6 14 +26 +38 жарко 1017.0 988.8 +29.7 +28.9
С 3.6
{8.1}
877.9 +29.5 -0.9 14 +27 +42 жарко 1017.1 988.9 +29.9 +29.4
СВ 2.8
{6.7}
887.9 +29.1 -1.1 14 +26 +43 жарко 1017.0 988.8 +29.5 +29.1
СВ 4.7
{8.0}
893.5 +29.1 -1.1 14 +26 +40 жарко 1016.9 988.7 +29.7 +29.1
СВ 4.0
{7.7}
892.3 +29.8 -0.7 14 +27 +42 жарко 1016.9 988.7 +29.8 +29.0
СВ 4.4
{9.0}
898.3 +29.8 -1.5 13 +27 +41 жарко 1016.9 988.7 +30.5 +29.8
С 3.8
{7.7}
878.4 +29.7 -0.7 14 +27 +42 жарко 1016.8 988.6 +30.1 +29.5
С 4.1
{7.9}
903.8 +30.2 -1.3 13 +27 +42 жарко 1016.8 988.6 +30.3 +29.7
СЗ 5.3
{10.5}
907.0 +30.4 -1.9 12 +27 +40 жарко 1016.7 988.5 +30.8 +30.0
СЗ 6.3
{10.1}
920.2 +30.2 -1.7 13 +27 +38 жарко 1016.7 988.5 +30.7 +29.9
С 3.9
{8.7}
900.4 +30.6 -1.2 13 +27 +42 жарко 1016.7 988.5 +30.7 +29.8
С 4.6
{8.6}
678.9 +29.9 -1.8 13 +27 +37 жарко 1016.7 988.5 +30.7 +30.0
С 5.8
{10.4}
560.3 +29.8 -2.0 13 +27 +34 жарко 1016.7 988.5 +30.1 +29.3
С 3.5
{7.4}
728.9 +30.3 -1.1 13 +27 +40 жарко 1016.7 988.5 +30.3 +29.5
СВ 3.4
{7.7}
226.2 +29.2 -1.2 14 +26 +30 жарко 1016.6 988.4 +30.3 +29.2
С 4.2
{7.8}
714.8 +30.6 -1.8 12 +27 +39 жарко 1016.6 988.4 +30.6 +29.1
С 4.3
{7.5}
746.8 +30.2 -1.1 13 +27 +39 жарко 1016.6 988.4 +30.6 +30.0
С 5.2
{11.3}
489.8 +29.8 -1.1 13 +27 +34 жарко 1016.4 988.2 +30.7 +29.7
СВ 4.1
{7.3}
565.7 +30.1 -1.5 13 +27 +36 жарко 1016.4 988.2 +30.1 +29.3
СЗ 6.6
{10.6}
259.4 +29.2 -2.0 13 +26 +29 жарко 1016.4 988.2 +29.8 +29.3
С 4.0
{7.5}
533.9 +29.4 -1.9 13 +26 +35 жарко 1016.5 988.3 +29.5 +29.1
С 4.6
{8.1}
673.4 +30.6 -1.4 13 +27 +37 жарко 1016.5 988.3 +30.6 +29.9
С 4.7
{10.0}
284.6 +29.4 -2.3 13 +26 +30 жарко 1016.4 988.2 +29.5 +28.9
СЗ 6.0
{9.7}
494.6 +29.9 -2.3 12 +27 +33 жарко 1016.3 988.1 +30.0 +29.4
С 3.8
{7.2}
483.9 +29.6 -1.9 13 +27 +35 жарко 1016.3 988.1 +29.9 +29.4
С 4.0
{9.5}
447.9 +29.6 -2.2 13 +27 +34 жарко 1016.3 988.1 +29.6 +29.3
С 5.8
{10.0}
403.8 +29.4 -2.5 12 +26 +31 жарко 1016.1 987.9 +29.8 +29.3
С 4.7
{8.1}
263.9 +29.2 -2.1 13 +26 +30 жарко 1016.2 988.0 +29.4 +29.0
С 4.9
{8.5}
257.1 +28.9 -1.8 14 +26 +30 жарко 1016.3 988.1 +28.9 +28.6
С 4.8
{8.3}
229.3 +28.4 -1.7 14 +26 +29 жарко 1016.3 988.1 +28.9 +28.4
С 5.2
{9.3}
149.8 +27.9 -1.4 15 +25 +27 комфорт 1016.4 988.2 +28.3 +27.9
С 5.5
{9.3}
106.9 +27.4 -1.5 15 +25 +26 комфорт 1016.6 988.4 +27.7 +27.4
С 5.4
{9.3}
60.7 +26.8 -1.5 16 +25 +26 комфорт 1016.8 988.6 +27.2 +26.8
С 5.1
{9.1}
41.2 +26.5 -1.3 16 +24 +25 комфорт 1016.8 988.6 +26.8 +26.5
С 5.7
{9.0}
11.9 +25.9 -1.4 17 +24 +24 комфорт 1016.9 988.7 +26.2 +25.9
СВ 5.3
{8.7}
3.7 +25.5 -1.3 17 +24 +24 комфорт 1017.0 988.8 +25.9 +25.5
С 4.2
{6.6}
+24.8 -1.3 18 +23 +23 комфорт 1017.1 988.9 +25.2 +24.8
СВ 4.2
{8.1}
+24.6 -1.0 18 +23 +23 комфорт 1017.2 989.0 +24.8 +24.6
СВ 4.9
{8.7}
+24.4 -1.0 19 +23 +23 комфорт 1017.3 989.1 +24.7 +24.4
С 4.6
{7.9}
+24.1 -1.1 19 +23 +23 комфорт 1017.4 989.2 +24.4 +24.1
СВ 4.4
{7.4}
+23.6 -1.5 19 +22 +22 комфорт 1017.6 989.4 +23.8 +23.6
СВ 4.3
{7.5}
+23.5 -1.5 19 +22 +22 комфорт 1017.7 989.5 +23.6 +23.5
СВ 3.9
{6.6}
+23.1 -1.4 19 +22 +22 комфорт 1017.7 989.5 +23.5 +23.1
СВ 3.8
{5.8}
+22.7 -1.5 20 +22 +22 комфорт 1017.8 989.6 +23.1 +22.7
СВ 4.4
{7.3}
+22.2 -2.4 19 +21 +21 комфорт 1018.0 989.8 +22.4 +22.2
СВ 4.2
{7.6}
+22.0 -2.8 19 +21 +21 комфорт 1018.1 989.9 +22.2 +22.0
СВ 3.5
{5.3}
+21.8 -2.9 19 +21 +21 комфорт 1018.1 989.9 +22.0 +21.8
СВ 4.1
{6.5}
+21.4 -3.5 19 +21 +21 комфорт 1018.2 990.0 +21.7 +21.4
СВ 3.7
{6.2}
+21.1 -4.0 18 +20 +20 1018.2 990.0 +21.4 +21.1
СВ 3.7
{5.6}
+21.0 -4.7 17 +21 +21 комфорт 1018.3 990.1 +21.1 +21.0
СВ 3.7
{5.7}
+20.6 -5.3 17 +20 +20 1018.3 990.1 +21.0 +20.6
СВ 3.2
{4.8}
+20.3 -5.7 17 +20 +20 1018.3 990.1 +20.6 +20.3
СВ 3.5
{4.7}
+20.1 -6.3 16 +20 +20 1018.3 990.1 +20.3 +20.1
СВ 3.2
{4.5}
+19.5 -6.9 16 +19 +19 1018.2 990.0 +19.9 +19.5
СВ 3.4
{5.8}
+19.6 -7.7 15 +19 +19 1018.2 990.0 +19.6 +19.4
СВ 4.1
{6.8}
+19.5 -7.9 15 +19 +19 1018.2 990.0 +19.7 +19.5
СВ 3.2
{4.7}
+19.0 -7.8 16 +19 +19 1018.2 990.0 +19.5 +19.0
СВ 3.7
{5.6}
+19.0 -8.6 15 +19 +19 1018.2 990.0 +19.0 +18.9
СВ 3.3
{4.4}
+18.5 -8.9 15 +19 +19 1018.2 990.0 +18.6 +18.4
В 2.4
{4.1}
+17.8 -8.6 16 +18 +18 1018.2 990.0 +18.0 +17.8
В 2.6
{5.0}
+17.6 -8.9 16 +18 +18 1018.2 990.0 +17.8 +17.6
В 2.7
{4.7}
+17.7 -8.9 15 +18 +18 1018.2 990.0 +17.7 +17.6
СВ 2.8
{4.5}
+17.5 -8.8 16 +18 +18 1018.1 989.9 +17.7 +17.5
В 2.2
{3.3}
+17.1 -8.4 17 +17 +17 1018.1 989.9 +17.5 +17.1
В 1.8
{2.7}
+16.5 -8.3 17 +17 +17 1018.2 990.0 +16.8 +16.5
В 1.5
{2.5}
+16.2 -8.0 18 +17 +17 1018.1 989.9 +16.5 +16.2
В 1.6
{2.2}
+15.9 -8.0 19 +16 +16 1018.1 989.9 +16.2 +15.9
В 1.3
{2.1}
+15.8 -8.1 19 +17 +17 1018.1 989.9 +15.9 +15.8
В 1.7
{2.2}
+15.8 -8.0 19 +16 +16 1018.2 990.0 +15.8 +15.7
В 1.8
{3.0}
+15.8 -8.3 18 +16 +16 1018.1 989.9 +15.8 +15.6
В 2.1
{3.7}
+15.8 -8.2 18 +16 +16 1018.1 989.9 +15.9 +15.8
В 2.5
{4.1}
+15.7 -8.3 18 +16 +16 1018.1 989.9 +15.8 +15.7
В 2.6
{3.9}
+15.5 -8.1 19 +15 +15 1018.2 990.0 +15.7 +15.5
В 2.5
{3.5}
+15.1 -8.2 19 +15 +15 1018.2 990.0 +15.2 +15.1
В 2.5
{3.6}
+15.1 -8.2 19 +15 +15 1018.2 990.0 +15.1 +15.1
В 2.4
{3.4}
+14.6 -8.0 20 +14 +14 1018.2 990.0 +14.8 +14.6
В 2.2
{3.5}
+14.5 -7.9 21 +14 +14 1018.2 990.0 +14.7 +14.5
В 2.0
{2.9}
0.3 +14.0 -7.9 21 +14 +14 1018.4 990.2 +14.3 +14.0
В 2.2
{3.1}
3.8 +13.9 -7.8 21 +14 +14 1018.4 990.2 +14.1 +13.9
В 2.3
{3.2}
11.9 +13.9 -7.7 22 +14 +14 1018.6 990.3 +13.9 +13.9
В 2.2
{3.2}
32.4 +14.1 -7.7 21 +14 +15 1018.6 990.3 +14.1 +13.9
В 2.3
{3.5}
51.5 +14.2 -7.5 21 +14 +15 1018.6 990.3 +14.2 +14.1
В 2.5
{3.6}
74.4 +14.2 -7.4 22 +14 +15 1018.6 990.3 +14.2 +14.2
В 2.7
{4.0}
98.3 +14.4 -7.3 22 +14 +16 1018.6 990.3 +14.4 +14.2
В 2.5
{4.1}
124.1 +14.6 -7.1 22 +14 +16 1018.7 990.4 +14.6 +14.4
В 2.4
{3.4}
151.0 +15.0 -7.0 21 +15 +18 1018.7 990.4 +15.0 +14.6
В 3.0
{4.1}
209.2 +15.3 -7.2 20 +15 +19 1018.7 990.4 +15.3 +15.1
СВ 2.5
{3.7}
268.4 +15.7 -6.9 20 +16 +21 1018.6 990.3 +15.7 +15.4
СВ 2.4
{3.9}
298.9 +15.9 -7.1 20 +16 +22 1018.6 990.3 +15.9 +15.6
В 2.1
{3.1}
330.1 +16.0 -6.9 20 +16 +23 1018.6 990.3 +16.0 +15.8
СВ 1.8
{2.7}
331.3 +16.4 -6.4 20 +17 +24 1018.7 990.4 +16.4 +15.9
СВ 1.4
{2.6}
423.0 +17.0 -6.6 19 +18 +27 1018.5 990.3 +17.2 +16.9
С 1.6
{2.7}
453.4 +17.4 -6.7 19 +18 +28 1018.5 990.3 +17.4 +17.0
С 1.6
{3.4}
383.2 +18.5 -6.7 17 +19 +27 1018.4 990.2 +18.5 +18.1
Местоположение метеостанции Тамды (Навоийская область, Узбекистан): широта 41.75 долгота 64.61 высота над уровнем моря 0 м.
В архиве по умолчанию представлена погода в Тамды за последние 1-2 суток. Обновление информации о фактической погоде в базе происходит ежечасно! Архивные данные за месяц целиком и за предыдущие месяцы Вы можете получить, выбрав интересующий диапазон дат из раскрывающегося списка и нажав кнопку "Ввод!".
*Определитесь, кто Вы:
Внимание! Время в таблицах - местное (без учета летнего времени). Для получения всемирного времени необходимо вычесть поправку, которая равна 5 ч.
Смотрите также архив погоды на ближайших метеорологических станциях:
Партнеры нашего сайта:      
Пояснения к столбцам:
  • Ветер - указаны скорость ветра в м/с - средняя за 10 мин, порывы в срок и между сроками (в фигурных скобках) и направление, откуда дует ветер: С - северный,
  • СВ - северо-восточный, В - восточный, ЮВ - юго-восточный, Ю - южный, ЮЗ - юго-западный, З - западный, СЗ - северо-западный.
  • Видимость - горизонтальная дальность видимости в метрах или километрах. При видимости от 1 до 10 км при отсутствии осадков обычно наблюдается дымка, при ухудшении видимости до 1 км и менее - туман. В сухую погоду видимость может ухудшаться дымом, пылью или мглою.
  • Явления - указаны атмосферные явления, наблюдавшиеся в срок или в последний час перед сроком.
  • Солнечная радиация - мощность потока солнечного излучения на поверхность земли и предметов в Вт/м2.
  • T - Температура воздуха - температура, измеренная на высоте 2 м над землей.
  • Td - Температура точки росы - температура, при понижении до которой содержащийся в воздухе водяной пар достигнет насыщения.
  • f - Относительная влажность воздуха - влажноcть воздуха, измеренная на высоте 2 м над землей.
  • Te - Эффективная температура - температура, которую ощущает одетый по сезону человек в тени. Характеристика душности погоды. При расчете учитывается влияние влажности воздуха и скорости ветра на теплоощущения человека.
  • Tes - Эффективная температура на солнце - температура, которую ощущает человек, с поправкой на солнечный нагрев. Характеристика знойности погоды. Зависит от высоты солнца над горизонтом, облачности и скорости ветра. Ночью, в пасмурную погоду, а также при ветре 12 м/с и более поправка равна нулю.
  • P - Атмосферное давление - приведенное к уровню моря атмосферное давление.
  • Po - Атмосферное давление - измеренное на уровне метеостанции атмосферное давление.
  • Tmin - Минимальная температура - минимум температуры воздуха на высоте 2 м над землей.
  • Tmax - Максимальная температура - максимум температуры воздуха на высоте 2 м над землей.
  • R - Количество осадков - Количество выпавших осадков за период времени, мм. При наведении курсора мыши на число - период времени, за который выпало указанное количество осадков.